Home > Weather > Wolfenbüttel > Past weeks

Flag for Germany Weather for the Past 2 Weeks in Wolfenbüttel, Lower Saxony, Germany

Now
73 °F

Sunny.


Feels Like: 76 °F
Forecast: 53 / 72 °F
Wind: 16 mph from Southeast

Location: Braunschweig Wolfsburg

Current Time: May 6, 2016 at 6:51:51 PM

Latest Report: May 6, 2016 at 5:50 PM


Visibility: 10 mi

Pressure: 30.01 "Hg

Humidity: 27%

Dew Point: 37 °F

Location of WolfenbüttelLocation

Historic Weather in Wolfenbüttel — Graph

°F

Wolfenbüttel Temperature Yesterday

Maximum temperature yesterday: 64 °F (at 5:50 PM)
Minimum temperature yesterday: 43 °F (at 7:50 AM)
Average temperature yesterday: 53 °F

High & Low Weather Summary for the Past Weeks

 TemperatureHumidityPressure
High73 °F (May 6, 2:50 PM)100% (Apr 22, 7:50 AM)30.39 "Hg (Apr 22, 7:50 AM)
Low34 °F (Apr 24, 8:50 PM)23% (May 6, 4:20 PM)29.45 "Hg (Apr 26, 6:50 AM)
Average49 °F63%29.97 "Hg
* Reported Apr 21 5:20 PM — May 6 5:20 PM, Wolfenbüttel, Weather by CustomWeather, © 2016

Note: Actual official high and low records may vary slightly from our data, if they occured in-between our weather recording intervals... More about our weather records

Advertising

Wolfenbüttel Weather History for the Previous 24 Hours

Scroll right to see more
 ConditionsComfort  
Time TempWeatherWind HumidityBarometerVisibility
5:20 PM
Fri, May 6
73 °FSunny.17 mph25%30.01 "Hg10 mi
4:50 PM73 °FPassing clouds.16 mph27%30.01 "HgN/A
4:20 PM73 °FPassing clouds.15 mph23%30.01 "HgN/A
3:50 PM73 °FSunny.17 mph29%30.04 "Hg10 mi
3:20 PM72 °FPassing clouds.15 mph31%30.04 "HgN/A
2:50 PM73 °FPassing clouds.15 mph31%30.04 "HgN/A
2:20 PM72 °FPassing clouds.15 mph29%30.04 "HgN/A
1:50 PM72 °FPassing clouds.15 mph33%30.07 "HgN/A
12:50 PM70 °FSunny.16 mph46%30.07 "Hg10 mi
12:20 PM70 °FSunny.15 mph43%30.09 "Hg10 mi
11:50 AM70 °FSunny.15 mph46%30.09 "Hg10 mi
11:20 AM68 °FSunny.13 mph49%30.09 "Hg10 mi
10:50 AM68 °FSunny.13 mph53%30.09 "Hg10 mi
10:20 AM66 °FSunny.9 mph56%30.09 "Hg10 mi
9:50 AM64 °FSunny.9 mph60%30.12 "Hg10 mi
9:20 AM63 °FSunny.8 mph64%30.12 "Hg10 mi
8:50 AM59 °FSunny.8 mph72%30.12 "Hg10 mi
8:20 AM57 °FSunny.7 mph72%30.12 "Hg10 mi
7:50 AM54 °FSunny.7 mph77%30.12 "Hg10 mi
7:20 AM50 °FSunny.8 mph82%30.12 "Hg10 mi
6:50 AM48 °FSunny.9 mph82%30.12 "Hg10 mi
Weather by CustomWeather, © 2016

See weather overviewHow to use our weather pages